カタログに戻る

FENGYUN 1C DEB

運用中PO
NORAD 30070·DEBRIS·🇨🇳 China

打ち上げ May 10, 1999 から Taiyuan Satellite Launch Center

Loading…

次のパス (今後24時間)

TLE

最新Source: Space-Track

元期: Sep 14, 2026, 14:32 UTC

1 30070U 99025PX  26257.60610470  .00001482  00000-0  51246-3 0  9997
2 30070  98.2579 301.0530 0322724 244.0335 273.3431 14.11816548997697

AllMySatでFENGYUN 1C DEBをリアルタイム追跡

Download on the App Store